Regional Weather Roundup
Issued by NWS

Home | Current Version | Previous Version | Graphics & Text | Print | Product List | Glossary On
Versions: 1 2 3 4 5 6 7 8 9 10 11 12 13 14 15 16 17 18 19 20 21 22 23 24 25 26 27 28 29 30 31 32 33 34 35 36 37 38 39 40 41 42 43 44 45 46 47 48 49 50
000
ASUS45 KTFX 232110
RWRMT
MONTANA REGIONAL WEATHER ROUNDUP
NATIONAL WEATHER SERVICE GREAT FALLS MT
300 PM MDT SAT MAY 23 2015

NOTE: "FAIR" INDICATES FEW OR NO CLOUDS BELOW 12000 FEET WITH NO
SIGNIFICANT WEATHER AND/OR OBSTRUCTIONS TO VISIBILITY.

MTZ001>007-043-232200-
WEST OF THE DIVIDE

CITY           SKY/WX    TMP DP  RH WIND       PRES   REMARKS
KALISPELL      MOCLDY    75  35  23 VRB7      30.02S
MISSOULA       PTSUNNY   69  42  37 SE17G23   30.03R
BUTTE          PTSUNNY   57  39  51 N16G26    30.06R
MULLAN PASS    SUNNY     68  34  28 CALM      30.12R
DEER LODGE       N/A     57  41  54 N14       30.11R
EUREKA           N/A     77  30  18 NE12      30.02F
HAMILTON         N/A     61  46  59 NW24      30.01S
LIBBY            N/A     79  32  18 NW8       30.00F
PLAINS           N/A     81  38  21 NE14      30.01R
RONAN            N/A     71  45  39 N7        30.07F
THOMPSON FALLS   N/A     80  39  23 N8        30.01F
$$

MTZ008-052>055-232200-
SOUTHWEST MONTANA

CITY           SKY/WX    TMP DP  RH WIND       PRES   REMARKS
BOZEMAN        LGT RAIN  54  48  80 NW7       30.04S
DILLON         MOSUNNY   62  43  49 N24G33    29.99S
W YELLOWSTONE  PTSUNNY   52  39  62 NE14      30.00F
$$

MTZ009-010-012-014-046-048-049-054-232200-
EAST SLOPES AND CENTRAL MONTANA

CITY           SKY/WX    TMP DP  RH WIND       PRES   REMARKS
CUT BANK       PTSUNNY   57  45  64 E16G23    30.11S
GREAT FALLS    CLOUDY    56  48  74 E17       30.08R
MALMSTROM AFB  LGT RAIN  55  52  90 SE14      30.09R
HELENA         CLOUDY    56  49  77 NW10      30.08R
CONRAD           N/A     62  48  60 N6        30.12R
$$

MTZ011-013-016-021-045-047-050-051-232200-
NORTH CENTRAL MONTANA

CITY           SKY/WX    TMP DP  RH WIND       PRES   REMARKS
HAVRE          MOSUNNY   71  44  37 E16G26    30.07S
LEWISTOWN      CLOUDY    56  47  71 CALM      30.09S
N BAR RANCH    FAIR      61  37  41 N8G21     30.09
CHINOOK          N/A     68  45  42 E12       30.08S
FORT BENTON      N/A     66  46  48 E10       30.07R
$$

MTZ017>020-022>027-061-062-232200-
NORTHEAST MONTANA

CITY           SKY/WX    TMP DP  RH WIND       PRES   REMARKS
GLASGOW        PTSUNNY   71  35  26 E21G31    30.06S
JORDAN           N/A     68  42  38 SE15G25   30.04R
SIDNEY         PTSUNNY   72  43  35 E17       30.09S
WOLF POINT     MOSUNNY   76  39  26 E22G28    30.07S
MALTA            N/A     73  40  30 E14       30.03F
PLENTYWOOD       N/A     72  36  26 E18       30.10F
POPLAR           N/A     72  37  28 E21       30.08S
SCOBEY           N/A     74  37  26 E20       30.09F
$$

MTZ028>42-056>058-232200-
SOUTHCENTRAL AND SOUTHEAST MONTANA

CITY           SKY/WX    TMP DP  RH WIND       PRES   REMARKS
BAKER          LGT RAIN  54  49  83 SE12      30.10R
BILLINGS       CLOUDY    63  41  44 NE15      30.01R
LIVINGSTON     RAIN      52  49  89 E12       30.03S FOG
MILES CITY     CLOUDY    58  46  64 SE13      30.05R
BIG TIMBER       N/A     52  48  87 N8        30.06R
EKALAKA          N/A     49  45  86 E8        30.06R
FORSYTH          N/A     59  46  63 E15       30.04R
LAUREL           N/A     63  42  46 N6        30.00S
ROUNDUP          N/A     67  36  31 NE12      29.93F
$$

REGIONAL REPORTS...DAKOTAS

CITY           SKY/WX    TMP DP  RH WIND       PRES   REMARKS
WILLISTON      PTSUNNY   74  37  26 E15G23    30.10F
MINOT          MOSUNNY   75  36  24 SE9       30.10F
DICKINSON      CLOUDY    60  45  57 E14       30.09F
BEACH          FAIR      59  45  58 SE17      30.11R
CROSBY         FAIR      73  34  23 E8        30.12S
WATFORD CITY   MOCLDY    70  39  32 SE17G23   30.08F
BISMARCK       CLOUDY    65  48  54 SE15      30.12F
GRAND FORKS    PTSUNNY   78  43  28 S12       30.10S
FARGO          MOSUNNY   72  48  42 SE13G21   30.14F
BUFFALO SD       N/A     56  47  71 E14       30.01S
RAPID CITY     CLOUDY    56  49  77 SE12      30.03F
$$

REGIONAL REPORTS...WYOMING/IDAHO/WASHINGTON

CITY           SKY/WX    TMP DP  RH WIND       PRES   REMARKS
GILLETTE       PTSUNNY   58  45  62 E7        30.01R
SHERIDAN       LGT RAIN  53  48  83 N6        30.02R
BUFFALO WY     LGT RAIN  49  47  93 N10       30.03R FOG
CODY           CLOUDY    46  43  87 CALM      30.02R
YELLOWSTONE LA   N/A     43  39  86 CALM      30.07R
IDAHO FALLS    PTSUNNY   55  49  80 S14       29.93R
SALMON         PTSUNNY   70  39  32 E18G30    29.91F
BOISE          MOSUNNY   77  50  38 NW21      29.84F
SPOKANE        PTSUNNY   79  37  22 VRB6      29.99F
$$

REGIONAL REPORTS...ALBERTA

CITY           SKY/WX    TMP DP  RH WIND       PRES   REMARKS
EDMONTON       SUNNY     81  30  16 N2        30.09F
CALGARY        MOSUNNY   72  25  17 SE5G17    30.15F
LETHBRIDGE     MOSUNNY   72  36  26 NE12G35   30.10F
MEDICINE HAT   PTSUNNY   79  30  17 NE14G22   30.08S
$$

REGIONAL REPORTS...SASKATCHEWAN

CITY           SKY/WX    TMP DP  RH WIND       PRES   REMARKS
SWIFT CURRENT  MOSUNNY   73  28  19 E12G20    30.12S
REGINA         PTSUNNY   77  34  20 S9        30.10F
SASKATOON      PTSUNNY   81  23  12 SW6       30.11S
$$


USA.gov is the U.S. government's official web portal to all federal, state and local government web resources and services.